Regional Weather Roundup
Issued by NWS Green Bay, WI

Home | Current Version | Previous Version | Text Only | Print | Product List | Glossary On
Versions: 1 2 3 4 5 6 7 8 9 10 11 12 13 14 15 16 17 18 19 20 21 22 23 24 25 26 27 28 29 30 31 32 33 34 35 36 37 38 39 40 41 42 43 44 45 46 47 48 49 50
000
ASUS43 KGRB 260311
RWRGRB

NORTH-CENTRAL AND NORTHEAST WISCONSIN REGIONAL WEATHER ROUNDUP
NATIONAL WEATHER SERVICE GREEN BAY WI
1000 PM CDT MON MAY 25 2015

WIZ005-009-010>012-018-019-260400-
NORTH CENTRAL WISCONSIN

CITY           SKY/WX    TMP DP  RH WIND       PRES   REMARKS
IRONWOOD       CLOUDY    55  55 100 S3        29.73R VSB 1/2
MANITOWISH WTR CLOUDY    60  58  94 S5        29.79R
ARBOR VITAE    PTCLDY    59  57  92 CALM      29.80R
EAGLE RIVER    MOCLDY    60  58  94 SW3       29.80R
LAND O LAKES   PTCLDY    60  57  89 SW3       29.80R
RHINELANDER    CLOUDY    63  58  83 SW6       29.81R
PHILLIPS       CLOUDY    60  58  93 CALM      29.79R
ANTIGO         PTCLDY    59  57  94 W7        29.83S
TOMAHAWK       MOCLDY    61  58  91 CALM      29.82R
MERRILL        PTCLDY    58  58  99 CALM      29.83R
$$

WIZ013-073-260400-
NORTHEAST WISCONSIN

CITY           SKY/WX    TMP DP  RH WIND       PRES   REMARKS
IRON MOUNTAIN  CLOUDY    65  59  81 S6        29.78R
MARINETTE      PTCLDY    66  61  82 W5        29.80R
OCONTO         PTCLDY    65  63  91 W5        29.81R
$$

WIZ017-030-035>037-045-260400-
CENTRAL WISCONSIN

CITY           SKY/WX    TMP DP  RH WIND       PRES   REMARKS
MEDFORD        PTCLDY    60  59  97 S3        29.81S
WAUSAU         CLEAR     60  56  86 CALM      29.81R
MOSINEE        CLEAR     61  59  94 S6        29.84R
MARSHFIELD     PTCLDY    61  57  87 S7        29.82R
WISC RAPIDS    PTCLDY    62  59  90 CALM      29.84R
STEVENS POINT  CLOUDY    61  60  97 S3        29.84R
WAUPACA        MOCLDY    64  63  97 S3        29.84R
SHAWANO        CLOUDY    66  61  85 SW3       29.83R
CLINTONVILLE   PTCLDY    63  61  94 SW3       29.83R
$$

WIZ038-039-048-051-260400-
FOX VALLEY

CITY           SKY/WX    TMP DP  RH WIND       PRES   REMARKS
NWS GREEN BAY  PTCLDY    65  61  87 SW6       29.84R
APPLETON       MOCLDY    64  57  77 SW7       29.85R
OSHKOSH        CLEAR     69  60  73 S8        29.85R
FOND DU LAC    CLEAR     70  59  68 S10       29.86R
$$

WIZ022-050-052-260400-
EAST CENTRAL WISCONSIN

CITY           SKY/WX    TMP DP  RH WIND       PRES   REMARKS
STURGEON BAY   MOCLDY    66  61  82 SW8       29.85R
MANITOWOC      CLEAR     72  62  71 SW13      29.86R
SHEBOYGAN      CLEAR     67  59  75 S9        29.87R
$$

LMZ563-521-522-541>543-260400-
LAKESHORE

STATION/POSITION TIME  TEMP    WIND        PRES    VSBY  WAVE
                       AIR SEA DIR/SP/G                  HT/PER
                 (UTC) (F)     (DEG/KT/KT) (MB)    (MI)  (FT/S)
SHEBOYGAN LKSHOR 0300   69     200/ 10/ 11 1011.9R
KEWAUNEE LKSHORE 0200          180/  9/ 10 1008.6S
NORTHPORT PIER   0200   56     180/  3/  5 1008.5R
N MID LAKE BUOY  0250   42 37  200/ 12/ 14 1009.6R         3/ 6
SISTER BAY LKSHO 0203   67     190/ 11/ 11   N/A
CHAMBERS ISLAND  0200   65     190/  8/ 14 1008.5R
MENOMINEE LKSHOR 0200   68     190/ 11/ 17 1009.0R
$$


USA.gov is the U.S. government's official web portal to all federal, state and local government web resources and services.